Location: Newark
(51.3318°N, 0.0053°E)
Time: 23:04:53
(UTC+00:00)

LO-87 - Pass Details

Date: 06 July 2022
Orbit: 450 x 466 km, 97.4° (Epoch: 18 August)

Event Time Altitude Azimuth Distance (km) Brightness Sun altitude
Exits shadow 00:24:58 17° 243° (WSW) 1,265 ? -15.8°
Maximum altitude 00:26:03 19° 268° (W) 1,175 ? -15.8°
Drops below altitude 10° 00:28:37 10° 315° (NW) 1,632 ? -15.8°
Sets 00:31:08 0° 334° (NNW) 2,519 ? -15.7°
